CW0641 Weather Reports


Display with metric or nautical units.
time (UTC)temp
F
wind
direction
speed
MPH
gust
MPH
rain 1hr
in
rain 24hr
in
rain mn
in
humidity
%
barometer
mb
20260505011032 50 289 6.0 14.0 0.00 0.00 0.00 86 1012.5
20260505010814 50 333 6.0 15.0 0.00 0.00 0.00 86 1012.4
20260505010016 50 270 6.0 15.0 0.00 0.00 0.00 86 1012.6
20260505005809 50 294 6.0 11.0 0.00 0.00 0.00 86 1012.5
20260505005010 51 304 6.0 13.0 0.00 0.00 0.00 85 1012.6
20260505004005 51 287 8.0 15.0 0.00 0.00 0.00 85 1012.6
20260505003809 51 296 9.0 15.0 0.00 0.00 0.00 85 1012.6
20260505002955 51 275 7.0 14.0 0.00 0.00 0.00 84 1012.8
20260505002804 51 320 7.0 14.0 0.00 0.00 0.00 84 1012.8
20260505001954 51 282 8.0 11.0 0.00 0.00 0.00 84 1012.8
20260505001803 51 262 6.0 3.0 0.00 0.00 0.00 83 1012.8
20260505000948 51 262 6.0 12.0 0.00 0.00 0.00 83 1012.8
20260505000444 51 262 6.0 12.0 0.00 0.00 0.00 83 1012.6
20260504235942 51 269 6.0 11.0 0.00 0.00 0.00 83 1012.8
20260504235444 51 285 7.0 12.0 0.00 0.00 0.00 83 1012.8
20260504234939 51 269 7.0 15.0 0.00 0.00 0.00 83 1012.9
20260504234441 51 309 6.0 15.0 0.00 0.00 0.00 83 1013.0
20260504233939 51 321 6.0 12.0 0.00 0.00 0.00 82 1012.9
20260504232437 52 293 9.0 17.0 0.00 0.00 0.00 81 1013.1
20260504231935 51 332 9.0 17.0 0.00 0.00 0.00 81 1013.1
20260504231434 51 284 7.0 15.0 0.00 0.00 0.00 80 1013.0
20260504230930 51 284 8.0 16.0 0.00 0.00 0.00 80 1013.0
20260504225926 51 289 9.0 17.0 0.00 0.00 0.00 80 1013.3
20260504225426 51 328 9.0 14.0 0.00 0.00 0.00 80 1013.3
20260504224927 51 308 9.0 16.0 0.00 0.00 0.00 80 1013.3
20260504223924 51 304 9.0 17.0 0.00 0.00 0.00 79 1013.3
20260504222917 51 284 10.0 17.0 0.00 0.00 0.00 79 1013.5
20260504222412 51 314 9.0 18.0 0.00 0.00 0.00 79 1013.7
20260504221913 52 250 10.0 18.0 0.00 0.00 0.00 80 1013.7
20260504221413 52 273 9.0 17.0 0.00 0.00 0.00 80 1013.9
20260504220909 52 267 9.0 17.0 0.00 0.00 0.00 80 1014.0
20260504220409 52 232 9.0 15.0 0.00 0.00 0.00 80 1013.9
20260504215906 52 305 8.0 15.0 0.00 0.00 0.00 80 1014.2
20260504215404 52 299 7.0 15.0 0.00 0.00 0.00 81 1014.2
20260504214904 52 298 8.0 14.0 0.00 0.00 0.00 80 1014.2
20260504214406 52 262 8.0 16.0 0.00 0.00 0.00 81 1014.2
20260504213906 52 286 9.0 16.0 0.00 0.00 0.00 81 1014.3
20260504212902 52 272 8.0 15.0 0.00 0.00 0.00 81 1014.4
20260504212401 52 309 9.0 16.0 0.00 0.00 0.00 81 1014.5
20260504211906 52 299 9.0 16.0 0.00 0.00 0.00 81 1014.5
20260504211404 52 294 8.0 15.0 0.00 0.00 0.00 81 1014.5
20260504210856 52 309 8.0 14.0 0.00 0.00 0.00 82 1014.5
20260504210350 52 269 9.0 14.0 0.00 0.00 0.00 82 1014.6
20260504205844 52 265 8.0 15.0 0.00 0.00 0.00 82 1014.6
20260504205342 52 267 7.0 17.0 0.00 0.00 0.00 82 1014.5
20260504204841 52 286 7.0 18.0 0.00 0.00 0.00 82 1014.5
20260504204341 52 331 8.0 18.0 0.00 0.00 0.00 82 1014.7
20260504203842 52 281 8.0 19.0 0.00 0.00 0.00 82 1014.6
20260504202842 52 310 8.0 13.0 0.00 0.00 0.00 82 1014.6
20260504202341 52 248 7.0 13.0 0.00 0.00 0.00 82 1014.7
20260504201834 52 315 8.0 14.0 0.00 0.00 0.00 82 1014.6
20260504201330 52 298 8.0 15.0 0.00 0.00 0.00 82 1014.7
20260504200829 52 329 9.0 18.0 0.00 0.00 0.00 82 1014.7
20260504195828 52 265 8.0 15.0 0.00 0.00 0.00 82 1014.8
20260504195326 52 262 7.0 16.0 0.00 0.00 0.00 82 1014.8
20260504194826 52 257 8.0 18.0 0.00 0.00 0.00 82 1014.8
20260504193327 52 311 7.0 15.0 0.00 0.00 0.00 82 1014.9
20260504191322 52 321 9.0 15.0 0.00 0.00 0.00 83 1014.9
20260504190820 53 294 9.0 18.0 0.00 0.00 0.00 83 1014.9
20260504190320 53 284 9.0 18.0 0.00 0.00 0.00 83 1014.9
20260504185820 53 246 9.0 17.0 0.00 0.00 0.00 83 1014.8
20260504185311 53 263 9.0 18.0 0.00 0.00 0.00 83 1014.8
20260504184811 53 311 9.0 18.0 0.00 0.00 0.00 83 1014.8
20260504184309 53 291 9.0 16.0 0.00 0.00 0.00 83 1014.8
20260504183311 53 280 8.0 18.0 0.00 0.00 0.00 84 1014.7
20260504182811 53 269 8.0 15.0 0.00 0.00 0.00 84 1014.7
20260504182311 53 269 7.0 15.0 0.00 0.00 0.00 84 1014.6
20260504181811 53 300 7.0 15.0 0.00 0.00 0.00 84 1014.5
20260504181310 53 257 7.0 15.0 0.00 0.00 0.00 84 1014.7
20260504175808 53 273 8.0 17.0 0.00 0.00 0.00 84 1014.5
20260504175304 53 233 8.0 18.0 0.00 0.00 0.00 84 1014.4
20260504174804 53 292 9.0 19.0 0.00 0.00 0.00 84 1014.3
20260504173802 54 324 8.0 14.0 0.00 0.00 0.00 83 1014.2
20260504173303 54 315 9.0 18.0 0.00 0.00 0.00 83 1014.0
20260504172803 54 275 9.0 18.0 0.00 0.00 0.00 83 1014.3
20260504172304 54 296 9.0 15.0 0.00 0.00 0.00 83 1013.8
20260504171802 54 284 9.0 15.0 0.00 0.00 0.00 82 1013.8
20260504171301 54 292 9.0 15.0 0.00 0.00 0.00 82 1013.8
20260504170302 55 311 11.0 22.0 0.00 0.00 0.00 81 1013.6
20260504160250 55 250 10.0 19.0 0.00 0.00 0.00 72 1013.4
20260504150740 56 278 13.0 22.0 0.00 0.00 0.00 76 1013.4
20260504150241 56 311 11.0 21.0 0.00 0.00 0.00 76 1013.5
20260504141239 57 271 11.0 26.0 0.00 0.00 0.00 68 1013.5
20260504140737 57 286 9.0 19.0 0.00 0.00 0.00 69 1013.5
20260504140236 58 298 9.0 19.0 0.00 0.00 0.00 70 1013.4
20260504130735 58 238 14.0 27.0 0.00 0.00 0.00 68 1013.4
20260504130234 58 336 15.0 27.0 0.00 0.00 0.00 67 1013.4
20260504120234 59 281 16.0 27.0 0.00 0.00 0.00 65 1013.8
20260504100534 61 297 13.0 26.0 0.00 0.00 0.00 57 1014.8
20260504081657 59 313 13.0 26.0 0.00 0.00 0.00 57 1014.3
20260504081200 59 284 12.0 21.0 0.00 0.00 0.00 58 1014.3
20260504080656 58 258 13.0 21.0 0.00 0.00 0.00 58 1014.2
20260504080152 58 311 13.0 21.0 0.00 0.00 0.00 59 1014.3
20260504070134 56 258 11.0 20.0 0.00 0.00 0.00 66 1014.3
20260504060116 54 304 9.0 21.0 0.00 0.00 0.00 71 1013.7
20260504050111 53 242 7.0 17.0 0.00 0.00 0.00 82 1013.4
20260504045605 53 233 7.0 17.0 0.00 0.00 0.00 83 1013.3
20260504044605 53 249 7.0 14.0 0.00 0.00 0.00 83 1013.3
20260504044105 53 343 8.0 18.0 0.00 0.00 0.00 83 1013.3
20260504043608 53 257 8.0 18.0 0.00 0.00 0.00 82 1013.3
20260504043106 53 295 7.0 13.0 0.00 0.00 0.00 81 1013.3
20260504042104 53 268 7.0 17.0 0.00 0.00 0.00 82 1013.3
20260504041607 53 241 8.0 17.0 0.00 0.00 0.00 81 1013.2
20260504041104 53 273 7.0 15.0 0.00 0.00 0.00 81 1013.3
20260504040605 53 238 7.0 15.0 0.00 0.00 0.00 81 1013.1
20260504035605 53 260 6.0 15.0 0.00 0.00 0.00 80 1013.0
20260504035104 53 254 6.0 12.0 0.00 0.00 0.00 81 1013.1
20260504034604 53 281 7.0 12.0 0.00 0.00 0.00 80 1013.0
20260504034103 53 322 7.0 14.0 0.00 0.00 0.00 80 1013.1
20260504033604 52 247 8.0 14.0 0.00 0.00 0.00 79 1013.0
20260504033105 52 296 8.0 14.0 0.00 0.00 0.00 79 1012.8
20260504032605 52 296 7.0 14.0 0.00 0.00 0.00 79 1012.5
20260504031108 51 326 7.0 14.0 0.00 0.00 0.00 80 1012.6
20260504030606 51 309 7.0 15.0 0.00 0.00 0.00 81 1012.8
20260504025606 51 263 6.0 12.0 0.00 0.00 0.00 81 1012.9
20260504024606 51 281 7.0 14.0 0.00 0.00 0.00 82 1012.6
20260504024416 51 279 6.0 11.0 0.00 0.00 0.00 82 1012.8
20260504023603 51 277 5.0 13.0 0.00 0.00 0.00 83 1012.8
20260504023417 51 301 6.0 13.0 0.00 0.00 0.00 83 1012.8
20260504022558 51 291 6.0 10.0 0.00 0.00 0.00 83 1012.9
20260504022102 51 293 6.0 8.0 0.00 0.00 0.00 83 1012.8
20260504021547 51 293 6.0 13.0 0.00 0.00 0.00 83 1012.8
20260504021039 51 317 6.0 13.0 0.00 0.00 0.00 84 1012.8
20260504020533 51 283 5.0 11.0 0.00 0.00 0.00 84 1012.8
20260504015528 51 252 5.0 15.0 0.00 0.00 0.00 84 1012.6
20260504015027 51 300 5.0 15.0 0.00 0.00 0.00 84 1012.6
20260504014526 51 287 5.0 11.0 0.00 0.00 0.00 84 1012.8
20260504014021 51 290 6.0 11.0 0.00 0.00 0.00 84 1012.6
20260504013521 51 307 6.0 11.0 0.00 0.00 0.00 84 1012.6
20260504012520 51 303 5.0 11.0 0.00 0.00 0.00 85 1012.6
20260504012022 51 313 5.0 11.0 0.00 0.00 0.00 85 1012.6
20260504011526 51 286 4.0 11.0 0.00 0.00 0.00 85 1012.8